Regional Weather Roundup
Issued by NWS

Home | Current Version | Previous Version | Text Only | Print | Product List | Glossary On
Versions: 1 2 3 4 5 6 7 8 9 10 11 12 13 14 15 16 17 18 19 20 21 22 23 24 25 26 27 28 29 30 31 32 33 34 35 36 37 38 39 40 41 42 43 44 45 46 47 48 49 50
000
ASUS45 KREV 012310
RWRNV
NEVADA REGIONAL WEATHER ROUNDUP
NATIONAL WEATHER SERVICE RENO NV
400 PM PDT MON SEP 01 2014

NOTE: "FAIR" INDICATES FEW OR NO CLOUDS BELOW 12,000 FEET WITH NO
SIGNIFICANT WEATHER AND/OR OBSTRUCTIONS TO VISIBILITY.

NVZ001-003-004-020000-
WESTERN NEVADA

CITY           SKY/WX    TMP DP  RH WIND       PRES   REMARKS
RENO           SUNNY     90  33  13 CALM      29.97F
CARSON CITY    FAIR      90  30  12 E13G22    29.99F
MINDEN           N/A    N/A N/A N/A MISG        N/A
SLIDE MTN        N/A     64  39  39 SE3         N/A
PYRAMID LAKE     N/A     75 N/A N/A VRB9        N/A
FALLON         SUNNY     89  31  12 N8        29.96F
LOVELOCK       SUNNY     88  37  16 N6        29.96F
HAWTHORNE      SUNNY     90  32  12 W8        29.96F
$$

NVZ002-CAZ072-073-020000-
NORTHERN AND CENTRAL SIERRA

CITY           SKY/WX    TMP DP  RH WIND       PRES   REMARKS
S. LAKE TAHOE  SUNNY     84  35  17 NE9       30.10F
TRUCKEE        SUNNY     86  34  15 W12G18    30.07F
SQUAW VLY 8000 NOT AVBL
SUSANVILLE     SUNNY     86  30  13 SE3       29.99F
BLUE CANYON    SUNNY     81  35  19 W10       30.08F
MAMMOTH LAKES  FAIR      86  27  11 SE8G16    30.13F
BRIDGEPORT     FAIR      86  29  12 NE12G21   30.08F
$$

NVZ030-031-036-020000-
NORTHERN NEVADA

CITY           SKY/WX    TMP DP  RH WIND       PRES   REMARKS
ELKO           SUNNY     82  25  12 SW10      30.05F
WINNEMUCCA     SUNNY     84  25  11 VRB3      30.01F
WENDOVER       SUNNY     81  36  19 E9        30.04F
$$

NVZ035-037-020000-
CENTRAL NEVADA

CITY           SKY/WX    TMP DP  RH WIND       PRES   REMARKS
ELY            SUNNY     84  28  13 VRB7G18   30.09F
EUREKA           N/A     84  29  13 MISG      30.06F
$$

NVZ013-014-020000-
SOUTH CENTRAL NEVADA

CITY           SKY/WX    TMP DP  RH WIND       PRES   REMARKS
TONOPAH        SUNNY     90  27  10 CALM      30.03F
$$

NVZ017-020-022-020000-
SOUTHERN NEVADA

CITY           SKY/WX    TMP DP  RH WIND       PRES   REMARKS
LAS VEGAS      SUNNY    104  38  10 E7        29.73F
N. LAS VEGAS   SUNNY    103  37  10 SE13      29.76F
NELLIS AFB     SUNNY    103  40  11 VRB5G21   29.74F
HENDERSON      SUNNY    104  38  10 E6        29.79F
MERCURY        SUNNY     98  25   7 VRB3      29.85F
$$


USA.gov is the U.S. government's official web portal to all federal, state and local government web resources and services.